CJT470 CYOW-CYFB

Flight info

Callsign CJT470
Flight time 2h 47m
Altitude 37000
Route RADEN DCT HENDY DCT YFY
Aircraft B752/M-SDE2E3FGHIJ3J4J7RWXY/LB1

Departure

Time 2026-04-26 03:21
Airport Ottawa Macdonald-Cartier International Airport (CYOW)

Arrival

Time 2026-04-26 06:08
Airport Iqaluit Airport (CYFB)
Time Latitude Longitude Altitude Speed Heading
2026-04-26 02:52 45.32573 -75.65102 375 ft 0 kts 321°
2026-04-26 03:08 45.32563 -75.65093 374 ft 2 kts 333°
2026-04-26 03:09 45.32549 -75.65083 374 ft 2 kts 328°
2026-04-26 03:09 45.32536 -75.65072 374 ft 2 kts 329°
2026-04-26 03:09 45.32524 -75.65061 373 ft 2 kts 329°
2026-04-26 03:09 45.32511 -75.65050 373 ft 1 kts 311°
2026-04-26 03:10 45.32507 -75.65031 373 ft 2 kts 258°
2026-04-26 03:10 45.32513 -75.65013 372 ft 2 kts 232°
2026-04-26 03:10 45.32518 -75.65002 372 ft 0 kts 239°
2026-04-26 03:10 45.32519 -75.65002 372 ft 0 kts 239°
2026-04-26 03:12 45.32518 -75.65003 372 ft 0 kts 240°
2026-04-26 03:13 45.32510 -75.65019 372 ft 5 kts 232°
2026-04-26 03:13 45.32482 -75.65073 374 ft 7 kts 236°
2026-04-26 03:13 45.32446 -75.65151 374 ft 11 kts 237°
2026-04-26 03:13 45.32394 -75.65271 374 ft 16 kts 238°
2026-04-26 03:14 45.32327 -75.65419 375 ft 19 kts 236°
2026-04-26 03:14 45.32243 -75.65601 375 ft 23 kts 238°
2026-04-26 03:14 45.32158 -75.65796 375 ft 22 kts 238°
2026-04-26 03:14 45.32077 -75.65976 375 ft 20 kts 238°
2026-04-26 03:15 45.32001 -75.66138 375 ft 18 kts 238°
2026-04-26 03:15 45.31935 -75.66290 374 ft 17 kts 237°
2026-04-26 03:15 45.31878 -75.66418 375 ft 11 kts 238°
2026-04-26 03:15 45.31840 -75.66461 375 ft 5 kts 181°
2026-04-26 03:16 45.31808 -75.66433 375 ft 6 kts 132°
2026-04-26 03:16 45.31781 -75.66383 374 ft 6 kts 127°
2026-04-26 03:16 45.31752 -75.66330 374 ft 6 kts 126°
2026-04-26 03:16 45.31723 -75.66273 373 ft 8 kts 126°
2026-04-26 03:17 45.31673 -75.66177 372 ft 15 kts 126°
2026-04-26 03:17 45.31598 -75.66032 371 ft 21 kts 126°
2026-04-26 03:17 45.31506 -75.65852 369 ft 22 kts 126°
2026-04-26 03:17 45.31418 -75.65685 366 ft 19 kts 127°
2026-04-26 03:18 45.31341 -75.65536 363 ft 11 kts 127°
2026-04-26 03:18 45.31279 -75.65475 362 ft 10 kts 160°
2026-04-26 03:18 45.31213 -75.65456 362 ft 8 kts 172°
2026-04-26 03:18 45.31158 -75.65449 362 ft 7 kts 185°
2026-04-26 03:19 45.31116 -75.65474 362 ft 5 kts 220°
2026-04-26 03:19 45.31102 -75.65509 363 ft 3 kts 257°
2026-04-26 03:19 45.31104 -75.65530 364 ft 0 kts 301°
2026-04-26 03:19 45.31105 -75.65532 364 ft 1 kts 301°
2026-04-26 03:20 45.31205 -75.65730 365 ft 60 kts 306°
2026-04-26 03:20 45.31606 -75.66504 376 ft 133 kts 306°
2026-04-26 03:20 45.32271 -75.67793 506 ft 186 kts 306°
2026-04-26 03:20 45.33107 -75.69412 960 ft 221 kts 307°
2026-04-26 03:21 45.34234 -75.71206 1301 ft 268 kts 324°
2026-04-26 03:21 45.35947 -75.72195 2297 ft 265 kts 352°
2026-04-26 03:21 45.37681 -75.72675 3516 ft 255 kts 347°
2026-04-26 03:21 45.39391 -75.73365 4300 ft 260 kts 345°
2026-04-26 03:22 45.41092 -75.74151 5197 ft 260 kts 343°
2026-04-26 03:22 45.42799 -75.74996 5964 ft 265 kts 343°
2026-04-26 03:22 45.44529 -75.75891 6770 ft 267 kts 342°
2026-04-26 03:22 45.46286 -75.76821 7570 ft 270 kts 342°
2026-04-26 03:23 45.48025 -75.77753 8324 ft 272 kts 341°
2026-04-26 03:23 45.49801 -75.78715 9073 ft 275 kts 340°
2026-04-26 03:23 45.51590 -75.79688 9789 ft 277 kts 340°
2026-04-26 03:23 45.53373 -75.80661 10449 ft 282 kts 340°
2026-04-26 03:24 45.55278 -75.81702 10758 ft 302 kts 340°
2026-04-26 03:24 45.57299 -75.82808 11023 ft 320 kts 340°
2026-04-26 03:24 45.59425 -75.83974 11248 ft 338 kts 340°
2026-04-26 03:24 45.61684 -75.85214 11523 ft 354 kts 339°
2026-04-26 03:25 45.63979 -75.86475 12236 ft 355 kts 339°
2026-04-26 03:25 45.66301 -75.87753 12863 ft 359 kts 339°
2026-04-26 03:25 45.68625 -75.89033 13492 ft 362 kts 339°
2026-04-26 03:25 45.70977 -75.90328 14102 ft 365 kts 339°
2026-04-26 03:26 45.73345 -75.91635 14695 ft 368 kts 339°
2026-04-26 03:26 45.75736 -75.92956 15310 ft 371 kts 339°
2026-04-26 03:26 45.78118 -75.94272 15889 ft 374 kts 339°
2026-04-26 03:26 45.80579 -75.95632 16455 ft 377 kts 339°
2026-04-26 03:27 45.83001 -75.96973 17019 ft 380 kts 339°
2026-04-26 03:27 45.85478 -75.98346 17516 ft 383 kts 339°
2026-04-26 03:27 45.87972 -75.99729 18083 ft 385 kts 339°
2026-04-26 03:27 45.90469 -76.01013 18593 ft 387 kts 345°
2026-04-26 03:28 45.93148 -76.01695 19024 ft 392 kts 356°
2026-04-26 03:28 45.95852 -76.01608 19513 ft 395 kts
2026-04-26 03:28 45.98570 -76.00888 19942 ft 399 kts 11°
2026-04-26 03:28 46.01306 -76.00077 20379 ft 402 kts 11°
2026-04-26 03:29 46.04028 -75.99254 20790 ft 406 kts 11°
2026-04-26 03:29 46.06791 -75.98408 21217 ft 409 kts 11°
2026-04-26 03:29 46.09592 -75.97544 21627 ft 412 kts 11°
2026-04-26 03:29 46.12405 -75.96673 22059 ft 415 kts 11°
2026-04-26 03:30 46.15214 -75.95798 22420 ft 419 kts 11°
2026-04-26 03:30 46.18071 -75.94909 22825 ft 421 kts 11°
2026-04-26 03:30 46.20965 -75.94005 23217 ft 424 kts 11°
2026-04-26 03:30 46.23819 -75.93113 23593 ft 427 kts 11°
2026-04-26 03:31 46.26729 -75.92202 23985 ft 429 kts 11°
2026-04-26 03:31 46.29683 -75.91277 24332 ft 433 kts 11°
2026-04-26 03:31 46.32601 -75.90360 24695 ft 436 kts 11°
2026-04-26 03:31 46.35585 -75.89423 25026 ft 439 kts 11°
2026-04-26 03:32 46.38575 -75.88483 25363 ft 442 kts 11°
2026-04-26 03:32 46.41583 -75.87536 25695 ft 445 kts 11°
2026-04-26 03:32 46.44591 -75.86588 26041 ft 448 kts 11°
2026-04-26 03:32 46.47652 -75.85622 26350 ft 451 kts 11°
2026-04-26 03:33 46.50730 -75.84649 26669 ft 454 kts 11°
2026-04-26 03:33 46.53827 -75.83669 26984 ft 456 kts 11°
2026-04-26 03:33 46.56900 -75.82696 27281 ft 459 kts 11°
2026-04-26 03:33 46.60041 -75.81699 27579 ft 462 kts 11°
2026-04-26 03:34 46.63184 -75.80701 27870 ft 464 kts 11°
2026-04-26 03:34 46.66328 -75.79703 28144 ft 467 kts 11°
2026-04-26 03:34 46.69498 -75.78693 28423 ft 470 kts 11°
2026-04-26 03:34 46.72727 -75.77666 28719 ft 472 kts 12°
2026-04-26 03:35 46.75920 -75.76647 28980 ft 475 kts 12°
2026-04-26 03:35 46.79131 -75.75622 29282 ft 476 kts 12°
2026-04-26 03:35 46.82381 -75.74583 29585 ft 478 kts 12°
2026-04-26 03:35 46.85598 -75.73553 29829 ft 480 kts 12°
2026-04-26 03:36 46.88885 -75.72498 30052 ft 483 kts 12°
2026-04-26 03:36 46.92169 -75.71443 30285 ft 485 kts 12°
2026-04-26 03:36 46.95440 -75.70392 30496 ft 488 kts 12°
2026-04-26 03:36 46.98774 -75.69319 30748 ft 489 kts 12°
2026-04-26 03:37 47.02096 -75.68248 30983 ft 491 kts 12°
2026-04-26 03:37 47.05387 -75.67186 31295 ft 490 kts 12°
2026-04-26 03:37 47.08725 -75.66107 31599 ft 489 kts 12°
2026-04-26 03:37 47.12058 -75.65028 31900 ft 488 kts 12°
2026-04-26 03:38 47.15323 -75.63970 32195 ft 487 kts 12°
2026-04-26 03:38 47.18650 -75.62891 32442 ft 487 kts 11°
2026-04-26 03:38 47.21917 -75.61831 32761 ft 485 kts 11°
2026-04-26 03:38 47.25214 -75.60760 33015 ft 484 kts 11°
2026-04-26 03:39 47.28505 -75.59689 33329 ft 482 kts 11°
2026-04-26 03:39 47.31791 -75.58617 33611 ft 481 kts 11°
2026-04-26 03:39 47.35023 -75.57563 33863 ft 480 kts 11°
2026-04-26 03:39 47.38284 -75.56498 34073 ft 479 kts 11°
2026-04-26 03:40 47.41555 -75.55428 34326 ft 478 kts 11°
2026-04-26 03:40 47.44754 -75.54380 34530 ft 478 kts 11°
2026-04-26 03:40 47.48003 -75.53314 34718 ft 477 kts 11°
2026-04-26 03:40 47.51219 -75.52258 34898 ft 476 kts 11°
2026-04-26 03:41 47.54469 -75.51189 35066 ft 475 kts 11°
2026-04-26 03:41 47.57672 -75.50136 35252 ft 474 kts 11°
2026-04-26 03:41 47.60855 -75.49086 35416 ft 473 kts 11°
2026-04-26 03:41 47.64073 -75.48024 35553 ft 472 kts 11°
2026-04-26 03:42 47.67256 -75.46972 35696 ft 471 kts 11°
2026-04-26 03:42 47.70461 -75.45911 35823 ft 470 kts 11°
2026-04-26 03:42 47.73613 -75.44867 35954 ft 469 kts 11°
2026-04-26 03:42 47.76815 -75.43805 36076 ft 469 kts 11°
2026-04-26 03:43 47.79959 -75.42761 36242 ft 468 kts 11°
2026-04-26 03:43 47.83139 -75.41703 36383 ft 467 kts 11°
2026-04-26 03:43 47.86314 -75.40646 36533 ft 467 kts 11°
2026-04-26 03:43 47.89465 -75.39595 36696 ft 466 kts 11°
2026-04-26 03:44 47.95786 -75.37484 36922 ft 466 kts 11°
2026-04-26 03:44 48.02098 -75.35371 37136 ft 462 kts 11°
2026-04-26 03:45 48.08323 -75.33280 37152 ft 461 kts 12°
2026-04-26 03:45 48.14599 -75.31169 37152 ft 462 kts 12°
2026-04-26 03:46 48.20844 -75.29062 37161 ft 463 kts 12°
2026-04-26 03:47 48.30299 -75.25862 37156 ft 461 kts 12°
2026-04-26 03:47 48.36533 -75.23746 37162 ft 462 kts 12°
2026-04-26 03:48 48.42776 -75.21621 37161 ft 461 kts 12°
2026-04-26 03:48 48.49012 -75.19493 37163 ft 460 kts 12°
2026-04-26 03:49 48.55234 -75.17364 37161 ft 460 kts 12°
2026-04-26 03:49 48.61470 -75.15226 37156 ft 460 kts 12°
2026-04-26 03:50 48.67687 -75.13088 37155 ft 458 kts 12°
2026-04-26 03:50 48.73879 -75.10955 37153 ft 458 kts 12°
2026-04-26 03:51 48.80065 -75.08817 37149 ft 458 kts 12°
2026-04-26 03:51 48.86255 -75.06673 37162 ft 457 kts 11°
2026-04-26 03:52 48.92444 -75.04524 37151 ft 456 kts 12°
2026-04-26 03:52 48.98617 -75.02374 37153 ft 457 kts 12°
2026-04-26 03:53 49.04780 -75.00223 37143 ft 455 kts 12°
2026-04-26 03:53 49.10976 -74.98055 37164 ft 456 kts 11°
2026-04-26 03:54 49.17151 -74.95888 37147 ft 456 kts 12°
2026-04-26 03:54 49.23299 -74.93726 37152 ft 456 kts 12°
2026-04-26 03:55 49.29604 -74.91502 37178 ft 456 kts 11°
2026-04-26 03:55 49.35740 -74.89332 37187 ft 456 kts 12°
2026-04-26 03:56 49.41919 -74.87142 37172 ft 456 kts 11°
2026-04-26 03:56 49.48072 -74.84956 37182 ft 456 kts 12°
2026-04-26 03:57 49.54259 -74.82750 37185 ft 455 kts 11°
2026-04-26 03:57 49.60378 -74.80565 37187 ft 455 kts 12°
2026-04-26 03:58 49.66550 -74.78354 37185 ft 456 kts 11°
2026-04-26 03:58 49.72731 -74.76134 37180 ft 457 kts 12°
2026-04-26 03:59 49.78878 -74.73921 37195 ft 457 kts 11°
2026-04-26 03:59 49.85051 -74.71693 37186 ft 454 kts 12°
2026-04-26 04:00 49.91175 -74.69476 37184 ft 455 kts 12°
2026-04-26 04:00 49.97331 -74.67243 37284 ft 458 kts 12°
2026-04-26 04:00 50.00447 -74.66109 37170 ft 452 kts 12°
2026-04-26 04:01 50.03473 -74.65007 37187 ft 453 kts 12°
2026-04-26 04:01 50.06523 -74.63896 37352 ft 455 kts 12°
2026-04-26 04:01 50.09632 -74.62762 37192 ft 458 kts 12°
2026-04-26 04:02 50.15792 -74.60508 37199 ft 454 kts 12°
2026-04-26 04:02 50.21995 -74.58234 37201 ft 454 kts 12°
2026-04-26 04:03 50.28274 -74.55925 37198 ft 455 kts 12°
2026-04-26 04:03 50.34391 -74.53670 37195 ft 454 kts 13°
2026-04-26 04:04 50.40526 -74.51402 37192 ft 455 kts 13°
2026-04-26 04:04 50.46709 -74.49110 37186 ft 456 kts 13°
2026-04-26 04:05 50.52857 -74.46825 37181 ft 455 kts 13°
2026-04-26 04:05 50.58965 -74.44549 37188 ft 456 kts 13°
2026-04-26 04:06 50.65145 -74.42239 37196 ft 457 kts 14°
2026-04-26 04:06 50.71342 -74.39917 37203 ft 458 kts 14°
2026-04-26 04:07 50.77532 -74.37591 37210 ft 460 kts 14°
2026-04-26 04:07 50.83742 -74.35252 36993 ft 460 kts 14°
2026-04-26 04:07 50.86846 -74.34081 37227 ft 455 kts 14°
2026-04-26 04:08 50.89900 -74.32925 37200 ft 457 kts 14°
2026-04-26 04:08 50.96091 -74.30580 37212 ft 459 kts 14°
2026-04-26 04:09 51.02291 -74.28225 37207 ft 461 kts 14°
2026-04-26 04:09 51.08517 -74.25854 37209 ft 462 kts 15°
2026-04-26 04:10 51.14774 -74.23618 37216 ft 461 kts 13°
2026-04-26 04:10 51.21212 -74.21578 37208 ft 462 kts 13°
2026-04-26 04:11 51.27558 -74.19552 37214 ft 461 kts 13°
2026-04-26 04:11 51.33825 -74.17542 37224 ft 460 kts 13°
2026-04-26 04:12 51.40064 -74.15537 37213 ft 460 kts 13°
2026-04-26 04:12 51.46164 -74.13570 37210 ft 460 kts 13°
2026-04-26 04:13 51.52417 -74.11548 37215 ft 461 kts 14°
2026-04-26 04:13 51.58679 -74.09517 37212 ft 462 kts 14°
2026-04-26 04:14 51.64965 -74.07473 37213 ft 462 kts 14°
2026-04-26 04:14 51.71247 -74.05426 37202 ft 461 kts 14°
2026-04-26 04:15 51.77516 -74.03374 37206 ft 461 kts 14°
2026-04-26 04:15 51.83792 -74.01317 37208 ft 461 kts 14°
2026-04-26 04:16 51.90064 -73.99254 37204 ft 462 kts 14°
2026-04-26 04:16 51.96351 -73.97180 37208 ft 463 kts 14°
2026-04-26 04:17 52.02610 -73.95111 37200 ft 463 kts 15°
2026-04-26 04:17 52.08903 -73.93023 37206 ft 464 kts 15°
2026-04-26 04:18 52.15260 -73.90908 37201 ft 463 kts 15°
2026-04-26 04:18 52.21848 -73.88710 37203 ft 462 kts 15°
2026-04-26 04:19 52.28135 -73.86606 37195 ft 461 kts 15°
2026-04-26 04:19 52.34400 -73.84503 37207 ft 462 kts 15°
2026-04-26 04:20 52.40694 -73.82384 37204 ft 463 kts 15°
2026-04-26 04:20 52.46970 -73.80267 37199 ft 464 kts 15°
2026-04-26 04:21 52.53289 -73.78127 37200 ft 463 kts 16°
2026-04-26 04:21 52.59526 -73.76009 37207 ft 461 kts 16°
2026-04-26 04:22 52.65826 -73.73862 37194 ft 462 kts 16°
2026-04-26 04:22 52.72102 -73.71719 37197 ft 464 kts 16°
2026-04-26 04:23 52.78381 -73.69568 37201 ft 463 kts 16°
2026-04-26 04:23 52.84681 -73.67406 37202 ft 463 kts 17°
2026-04-26 04:24 52.90985 -73.65234 37203 ft 464 kts 17°
2026-04-26 04:24 52.97268 -73.63060 37207 ft 463 kts 17°
2026-04-26 04:25 53.03535 -73.60889 37219 ft 463 kts 17°
2026-04-26 04:25 53.09837 -73.58697 37217 ft 463 kts 17°
2026-04-26 04:26 53.16225 -73.56471 37215 ft 462 kts 17°
2026-04-26 04:26 53.22667 -73.54216 37218 ft 464 kts 17°
2026-04-26 04:27 53.28973 -73.52003 37217 ft 464 kts 17°
2026-04-26 04:27 53.35256 -73.49794 37215 ft 463 kts 17°
2026-04-26 04:28 53.41536 -73.47575 37223 ft 462 kts 18°
2026-04-26 04:28 53.47789 -73.45361 37217 ft 462 kts 17°
2026-04-26 04:29 53.54049 -73.43139 37212 ft 460 kts 17°
2026-04-26 04:29 53.60295 -73.40913 37224 ft 461 kts 17°
2026-04-26 04:30 53.66547 -73.38680 37224 ft 461 kts 18°
2026-04-26 04:30 53.72819 -73.36433 37223 ft 462 kts 18°
2026-04-26 04:31 53.79001 -73.34209 37235 ft 461 kts 18°
2026-04-26 04:31 53.85257 -73.31955 37229 ft 460 kts 18°
2026-04-26 04:32 53.91500 -73.29698 37234 ft 459 kts 18°
2026-04-26 04:32 53.97741 -73.27433 37234 ft 460 kts 18°
2026-04-26 04:33 54.03966 -73.25169 37225 ft 459 kts 18°
2026-04-26 04:33 54.10003 -73.22965 37235 ft 460 kts 18°
2026-04-26 04:34 54.16479 -73.20595 37243 ft 460 kts 18°
2026-04-26 04:34 54.22764 -73.18288 37238 ft 460 kts 18°
2026-04-26 04:35 54.28975 -73.15999 37235 ft 459 kts 18°
2026-04-26 04:35 54.35211 -73.13693 37233 ft 460 kts 18°
2026-04-26 04:36 54.41442 -73.11385 37231 ft 460 kts 18°
2026-04-26 04:36 54.47691 -73.09061 37231 ft 460 kts 18°
2026-04-26 04:37 54.53907 -73.06743 37234 ft 460 kts 18°
2026-04-26 04:37 54.60139 -73.04412 37238 ft 460 kts 18°
2026-04-26 04:38 54.66391 -73.02065 37253 ft 459 kts 18°
2026-04-26 04:38 54.72579 -72.99734 37256 ft 460 kts 18°
2026-04-26 04:39 54.78800 -72.97385 37261 ft 458 kts 18°
2026-04-26 04:39 54.85022 -72.95028 37246 ft 459 kts 18°
2026-04-26 04:40 54.91228 -72.92669 37251 ft 459 kts 18°
2026-04-26 04:40 54.97452 -72.90295 37254 ft 459 kts 18°
2026-04-26 04:41 55.03675 -72.87916 37250 ft 459 kts 18°
2026-04-26 04:41 55.09897 -72.85529 37253 ft 458 kts 18°
2026-04-26 04:42 55.16360 -72.83040 37256 ft 458 kts 18°
2026-04-26 04:42 55.22580 -72.80637 37253 ft 459 kts 18°
2026-04-26 04:43 55.28793 -72.78230 37259 ft 459 kts 18°
2026-04-26 04:43 55.34983 -72.75825 37262 ft 458 kts 18°
2026-04-26 04:44 55.41178 -72.73409 37261 ft 457 kts 18°
2026-04-26 04:44 55.47379 -72.70983 37266 ft 458 kts 18°
2026-04-26 04:45 55.53586 -72.68546 37269 ft 458 kts 18°
2026-04-26 04:45 55.59782 -72.66107 37275 ft 457 kts 18°
2026-04-26 04:46 55.65950 -72.63671 37277 ft 457 kts 18°
2026-04-26 04:46 55.72118 -72.61227 37276 ft 456 kts 18°
2026-04-26 04:47 55.78294 -72.58771 37276 ft 457 kts 18°
2026-04-26 04:47 55.84492 -72.56300 37273 ft 456 kts 18°
2026-04-26 04:48 55.93713 -72.52607 37277 ft 455 kts 18°
2026-04-26 04:48 55.99872 -72.50130 37271 ft 454 kts 18°
2026-04-26 04:49 56.06043 -72.47639 37262 ft 456 kts 18°
2026-04-26 04:49 56.12241 -72.45130 37270 ft 456 kts 18°
2026-04-26 04:50 56.18485 -72.42595 37269 ft 456 kts 18°
2026-04-26 04:50 56.24661 -72.40078 37274 ft 455 kts 18°
2026-04-26 04:51 56.30800 -72.37569 37267 ft 455 kts 18°
2026-04-26 04:51 56.36951 -72.35046 37279 ft 456 kts 18°
2026-04-26 04:52 56.42896 -72.32599 37285 ft 455 kts 18°
2026-04-26 04:52 56.49032 -72.30067 37287 ft 454 kts 18°
2026-04-26 04:53 56.55168 -72.27525 37294 ft 455 kts 18°
2026-04-26 04:53 56.61324 -72.24966 37292 ft 454 kts 18°
2026-04-26 04:54 56.67456 -72.22409 37300 ft 455 kts 18°
2026-04-26 04:54 56.73591 -72.19843 37303 ft 455 kts 18°
2026-04-26 04:55 56.79743 -72.17260 37304 ft 455 kts 18°
2026-04-26 04:55 56.85927 -72.14655 37299 ft 454 kts 18°
2026-04-26 04:56 56.92074 -72.12057 37300 ft 455 kts 18°
2026-04-26 04:56 56.98219 -72.09450 37295 ft 455 kts 18°
2026-04-26 04:57 57.04376 -72.06832 37298 ft 453 kts 18°
2026-04-26 04:57 57.10472 -72.04227 37302 ft 456 kts 17°
2026-04-26 04:58 57.16698 -72.01561 37303 ft 455 kts 17°
2026-04-26 04:58 57.22840 -71.98920 37309 ft 455 kts 17°
2026-04-26 04:59 57.29014 -71.96259 37327 ft 453 kts 17°
2026-04-26 04:59 57.35112 -71.93619 37319 ft 451 kts 17°
2026-04-26 05:00 57.41202 -71.90973 37314 ft 453 kts 17°
2026-04-26 05:00 57.47348 -71.88294 37311 ft 453 kts 17°
2026-04-26 05:01 57.53449 -71.85626 37318 ft 453 kts 17°
2026-04-26 05:01 57.59584 -71.82933 37324 ft 454 kts 17°
2026-04-26 05:02 57.65696 -71.80242 37325 ft 454 kts 17°
2026-04-26 05:02 57.71862 -71.77518 37326 ft 455 kts 17°
2026-04-26 05:03 57.78003 -71.74795 37335 ft 454 kts 17°
2026-04-26 05:03 57.84123 -71.72071 37339 ft 455 kts 16°
2026-04-26 05:04 57.90273 -71.69325 37343 ft 454 kts 16°
2026-04-26 05:04 57.96384 -71.66586 37349 ft 454 kts 16°
2026-04-26 05:05 58.02518 -71.63828 37350 ft 455 kts 16°
2026-04-26 05:05 58.08886 -71.60954 37358 ft 455 kts 16°
2026-04-26 05:06 58.14849 -71.58253 37367 ft 455 kts 16°
2026-04-26 05:06 58.21003 -71.55456 37373 ft 455 kts 15°
2026-04-26 05:07 58.27105 -71.52672 37370 ft 454 kts 15°
2026-04-26 05:07 58.33223 -71.49872 37365 ft 455 kts 15°
2026-04-26 05:08 58.39377 -71.47046 37365 ft 454 kts 15°
2026-04-26 05:08 58.45486 -71.44229 37371 ft 454 kts 15°
2026-04-26 05:09 58.51606 -71.41397 37366 ft 455 kts 15°
2026-04-26 05:09 58.57732 -71.38552 37377 ft 455 kts 15°
2026-04-26 05:10 58.63841 -71.35705 37378 ft 455 kts 15°
2026-04-26 05:10 58.69862 -71.32890 37372 ft 455 kts 15°
2026-04-26 05:11 58.75959 -71.30028 37375 ft 455 kts 15°
2026-04-26 05:11 58.82106 -71.27132 37370 ft 455 kts 15°
2026-04-26 05:12 58.88224 -71.24239 37369 ft 455 kts 15°
2026-04-26 05:12 58.94376 -71.21320 37368 ft 457 kts 15°
2026-04-26 05:13 59.00545 -71.18382 37374 ft 456 kts 15°
2026-04-26 05:13 59.06781 -71.15401 37375 ft 456 kts 15°
2026-04-26 05:14 59.12733 -71.12545 37379 ft 455 kts 14°
2026-04-26 05:14 59.18857 -71.09596 37381 ft 455 kts 14°
2026-04-26 05:15 59.24939 -71.06656 37384 ft 455 kts 14°
2026-04-26 05:15 59.31092 -71.03671 37381 ft 456 kts 14°
2026-04-26 05:16 59.37190 -71.00702 37380 ft 456 kts 14°
2026-04-26 05:16 59.43302 -70.97715 37388 ft 456 kts 14°
2026-04-26 05:17 59.49459 -70.94694 37395 ft 456 kts 14°
2026-04-26 05:17 59.55571 -70.91685 37398 ft 455 kts 14°
2026-04-26 05:18 59.61668 -70.88672 37398 ft 456 kts 13°
2026-04-26 05:18 59.67820 -70.85619 37401 ft 456 kts 13°
2026-04-26 05:19 59.73917 -70.82584 37400 ft 456 kts 13°
2026-04-26 05:19 59.80065 -70.79510 37403 ft 457 kts 13°
2026-04-26 05:20 59.86196 -70.76434 37406 ft 457 kts 13°
2026-04-26 05:20 59.92330 -70.73344 37413 ft 458 kts 13°
2026-04-26 05:21 59.98566 -70.70191 37428 ft 457 kts 13°
2026-04-26 05:21 60.04868 -70.66993 37424 ft 457 kts 13°
2026-04-26 05:22 60.10726 -70.64008 37411 ft 457 kts 13°
2026-04-26 05:22 60.16885 -70.60857 37405 ft 456 kts 13°
2026-04-26 05:23 60.22993 -70.57720 37402 ft 456 kts 12°
2026-04-26 05:23 60.29121 -70.54563 37391 ft 456 kts 12°
2026-04-26 05:24 60.35255 -70.51388 37395 ft 455 kts 12°
2026-04-26 05:24 60.41352 -70.48222 37394 ft 455 kts 12°
2026-04-26 05:25 60.47470 -70.45033 37397 ft 455 kts 12°
2026-04-26 05:25 60.53563 -70.41842 37394 ft 455 kts 12°
2026-04-26 05:26 60.59685 -70.38624 37383 ft 455 kts 12°
2026-04-26 05:26 60.65773 -70.35413 37379 ft 454 kts 12°
2026-04-26 05:27 60.71753 -70.32245 37368 ft 454 kts 12°
2026-04-26 05:27 60.77818 -70.29020 37369 ft 454 kts 12°
2026-04-26 05:28 60.83914 -70.25767 37371 ft 454 kts 12°
2026-04-26 05:28 60.90016 -70.22496 37382 ft 454 kts 12°
2026-04-26 05:29 60.96228 -70.19154 37391 ft 454 kts 12°
2026-04-26 05:29 61.02354 -70.15845 37388 ft 454 kts 11°
2026-04-26 05:30 61.08433 -70.12549 37388 ft 454 kts 11°
2026-04-26 05:30 61.14329 -70.09338 37405 ft 453 kts 11°
2026-04-26 05:31 61.20394 -70.06023 37410 ft 455 kts 11°
2026-04-26 05:31 61.26503 -70.02670 37420 ft 454 kts 11°
2026-04-26 05:32 61.32542 -69.99342 37424 ft 453 kts 11°
2026-04-26 05:32 61.38621 -69.95980 37424 ft 454 kts 11°
2026-04-26 05:33 61.44712 -69.92597 37429 ft 455 kts 11°
2026-04-26 05:33 61.50804 -69.89199 37434 ft 455 kts 11°
2026-04-26 05:34 61.56861 -69.85808 37430 ft 455 kts 11°
2026-04-26 05:34 61.62934 -69.82393 37424 ft 454 kts 10°
2026-04-26 05:35 61.69004 -69.78966 37426 ft 454 kts 10°
2026-04-26 05:35 61.75090 -69.75517 37423 ft 454 kts 10°
2026-04-26 05:36 61.81146 -69.72070 37422 ft 454 kts 10°
2026-04-26 05:36 61.87228 -69.68594 37418 ft 455 kts
2026-04-26 05:37 61.93478 -69.65008 37413 ft 455 kts
2026-04-26 05:37 61.99561 -69.61502 37415 ft 455 kts
2026-04-26 05:38 62.05665 -69.57970 37399 ft 455 kts
2026-04-26 05:38 62.11778 -69.54418 37096 ft 458 kts
2026-04-26 05:39 62.14799 -69.52656 36387 ft 453 kts
2026-04-26 05:39 62.17802 -69.50899 35719 ft 449 kts
2026-04-26 05:39 62.20823 -69.49129 35055 ft 445 kts
2026-04-26 05:39 62.23769 -69.47399 34414 ft 442 kts
2026-04-26 05:40 62.26691 -69.45682 33826 ft 438 kts
2026-04-26 05:40 62.29590 -69.43973 33250 ft 432 kts
2026-04-26 05:40 62.32455 -69.42279 32680 ft 423 kts
2026-04-26 05:40 62.35285 -69.40611 32129 ft 426 kts
2026-04-26 05:41 62.38147 -69.38925 31578 ft 434 kts
2026-04-26 05:41 62.41056 -69.37202 31000 ft 439 kts
2026-04-26 05:41 62.43988 -69.35455 30407 ft 439 kts
2026-04-26 05:41 62.46934 -69.33696 29799 ft 437 kts
2026-04-26 05:42 62.49835 -69.31960 29200 ft 433 kts
2026-04-26 05:42 62.52731 -69.30225 28611 ft 429 kts
2026-04-26 05:42 62.55573 -69.28519 28037 ft 425 kts
2026-04-26 05:42 62.58380 -69.26832 27473 ft 423 kts
2026-04-26 05:43 62.61214 -69.25128 26903 ft 419 kts
2026-04-26 05:43 62.63691 -69.23634 26403 ft 417 kts
2026-04-26 05:43 62.66441 -69.21973 25849 ft 415 kts
2026-04-26 05:43 62.69224 -69.20287 25283 ft 410 kts
2026-04-26 05:44 62.71932 -69.18642 24754 ft 406 kts
2026-04-26 05:44 62.74636 -69.16999 24276 ft 404 kts
2026-04-26 05:44 62.77322 -69.15365 23792 ft 402 kts
2026-04-26 05:44 62.80002 -69.13730 23306 ft 400 kts
2026-04-26 05:45 62.82655 -69.12110 22820 ft 397 kts
2026-04-26 05:45 62.85291 -69.10493 22325 ft 392 kts
2026-04-26 05:45 62.87866 -69.08915 21818 ft 389 kts
2026-04-26 05:45 62.90461 -69.07321 21320 ft 385 kts
2026-04-26 05:46 62.93022 -69.05745 20836 ft 383 kts
2026-04-26 05:46 62.95543 -69.04188 20327 ft 378 kts
2026-04-26 05:46 62.98037 -69.02647 19807 ft 374 kts
2026-04-26 05:46 63.00541 -69.01099 19297 ft 371 kts
2026-04-26 05:47 63.02999 -68.99575 18810 ft 369 kts
2026-04-26 05:47 63.05440 -68.98061 18310 ft 368 kts
2026-04-26 05:47 63.07910 -68.96526 17841 ft 367 kts
2026-04-26 05:47 63.10350 -68.95005 17354 ft 364 kts
2026-04-26 05:48 63.12761 -68.93498 16852 ft 359 kts
2026-04-26 05:48 63.15140 -68.92011 16323 ft 357 kts
2026-04-26 05:48 63.17531 -68.90514 15822 ft 353 kts
2026-04-26 05:48 63.19860 -68.89053 15285 ft 352 kts
2026-04-26 05:49 63.22215 -68.87573 14741 ft 350 kts 10°
2026-04-26 05:49 63.26817 -68.84671 13641 ft 345 kts 10°
2026-04-26 05:49 63.29094 -68.83232 13106 ft 341 kts 10°
2026-04-26 05:50 63.31377 -68.81786 12584 ft 337 kts 10°
2026-04-26 05:50 63.33610 -68.80370 12068 ft 334 kts 11°
2026-04-26 05:50 63.35817 -68.78970 11590 ft 333 kts 11°
2026-04-26 05:50 63.38047 -68.77552 11085 ft 330 kts 11°
2026-04-26 05:51 63.40234 -68.76158 10634 ft 328 kts 11°
2026-04-26 05:51 63.42407 -68.74771 10167 ft 325 kts 11°
2026-04-26 05:51 63.44548 -68.73403 9705 ft 319 kts 11°
2026-04-26 05:51 63.46668 -68.72046 9302 ft 314 kts 11°
2026-04-26 05:52 63.48717 -68.70731 8952 ft 307 kts 11°
2026-04-26 05:52 63.50733 -68.69436 8667 ft 299 kts 11°
2026-04-26 05:52 63.52716 -68.68159 8478 ft 289 kts 11°
2026-04-26 05:52 63.54594 -68.66948 8263 ft 277 kts 11°
2026-04-26 05:53 63.56365 -68.65801 8069 ft 254 kts 11°
2026-04-26 05:53 63.57983 -68.64751 7936 ft 237 kts 10°
2026-04-26 05:53 63.59597 -68.63719 7930 ft 243 kts 11°
2026-04-26 05:53 63.61218 -68.62678 7832 ft 244 kts 11°
2026-04-26 05:54 63.62823 -68.61636 7732 ft 238 kts 11°
2026-04-26 05:54 63.64410 -68.60607 7631 ft 236 kts 11°
2026-04-26 05:54 63.65979 -68.59590 7504 ft 237 kts 11°
2026-04-26 05:54 63.67563 -68.58562 7309 ft 236 kts 11°
2026-04-26 05:55 63.69129 -68.57543 7061 ft 234 kts 11°
2026-04-26 05:55 63.70685 -68.56481 6724 ft 237 kts 18°
2026-04-26 05:55 63.71999 -68.54218 6396 ft 244 kts 50°
2026-04-26 05:55 63.72635 -68.50613 5995 ft 255 kts 81°
2026-04-26 05:56 63.72362 -68.46662 5684 ft 260 kts 112°
2026-04-26 05:56 63.71269 -68.43533 5392 ft 261 kts 142°
2026-04-26 05:56 63.69789 -68.41224 5050 ft 254 kts 139°
2026-04-26 05:56 63.68494 -68.38591 4767 ft 252 kts 133°
2026-04-26 05:57 63.67159 -68.36050 4680 ft 250 kts 140°
2026-04-26 05:57 63.65786 -68.33594 4691 ft 255 kts 138°
2026-04-26 05:57 63.64428 -68.30957 4682 ft 256 kts 137°
2026-04-26 05:57 63.63108 -68.28333 4678 ft 254 kts 139°
2026-04-26 05:58 63.61542 -68.26540 4718 ft 258 kts 170°
2026-04-26 05:58 63.59764 -68.26575 4723 ft 258 kts 191°
2026-04-26 05:58 63.57974 -68.27075 4694 ft 257 kts 187°
2026-04-26 05:58 63.56220 -68.27377 4702 ft 256 kts 186°
2026-04-26 05:59 63.54442 -68.27621 4693 ft 250 kts 185°
2026-04-26 05:59 63.52774 -68.27502 4719 ft 234 kts 164°
2026-04-26 05:59 63.51475 -68.25783 4752 ft 209 kts 127°
2026-04-26 05:59 63.50948 -68.22953 4758 ft 191 kts 86°
2026-04-26 06:00 63.51320 -68.20233 4703 ft 182 kts 46°
2026-04-26 06:00 63.52340 -68.18850 4692 ft 171 kts
2026-04-26 06:00 63.53526 -68.18906 4704 ft 172 kts 356°
2026-04-26 06:00 63.54721 -68.18923 4670 ft 171 kts 358°
2026-04-26 06:01 63.55902 -68.18976 4675 ft 171 kts 358°
2026-04-26 06:01 63.57095 -68.18926 4679 ft 172 kts
2026-04-26 06:01 63.58315 -68.18887 4515 ft 177 kts 355°
2026-04-26 06:01 63.59385 -68.20013 4249 ft 169 kts 320°
2026-04-26 06:02 63.60193 -68.21796 4007 ft 159 kts 320°
2026-04-26 06:02 63.60972 -68.23460 3757 ft 151 kts 321°
2026-04-26 06:02 63.61702 -68.25031 3525 ft 142 kts 321°
2026-04-26 06:02 63.62389 -68.26514 3306 ft 133 kts 321°
2026-04-26 06:03 63.63037 -68.27917 3108 ft 126 kts 321°
2026-04-26 06:03 63.63667 -68.29279 2960 ft 126 kts 321°
2026-04-26 06:03 63.64283 -68.30621 2811 ft 124 kts 321°
2026-04-26 06:03 63.64905 -68.31975 2655 ft 125 kts 321°
2026-04-26 06:04 63.65527 -68.33326 2492 ft 125 kts 321°
2026-04-26 06:04 63.66147 -68.34682 2324 ft 124 kts 321°
2026-04-26 06:04 63.66762 -68.36025 2165 ft 123 kts 321°
2026-04-26 06:04 63.67379 -68.37373 2011 ft 123 kts 321°
2026-04-26 06:05 63.67992 -68.38718 1848 ft 123 kts 321°
2026-04-26 06:05 63.68602 -68.40058 1686 ft 122 kts 321°
2026-04-26 06:05 63.69200 -68.41376 1533 ft 120 kts 320°
2026-04-26 06:05 63.69801 -68.42702 1376 ft 120 kts 320°
2026-04-26 06:06 63.70399 -68.44025 1223 ft 120 kts 320°
2026-04-26 06:06 63.70991 -68.45322 1067 ft 119 kts 320°
2026-04-26 06:06 63.71591 -68.46598 896 ft 118 kts 320°
2026-04-26 06:06 63.72178 -68.47893 800 ft 118 kts 319°
2026-04-26 06:07 63.72767 -68.49217 655 ft 120 kts 319°
2026-04-26 06:07 63.73354 -68.50520 500 ft 118 kts 318°
2026-04-26 06:07 63.73937 -68.51829 323 ft 117 kts 319°
2026-04-26 06:07 63.74527 -68.53091 147 ft 117 kts 318°
2026-04-26 06:08 63.75084 -68.54357 55 ft 108 kts 319°
2026-04-26 06:08 63.75534 -68.55329 69 ft 58 kts 316°
2026-04-26 06:08 63.75686 -68.55671 66 ft 30 kts 316°
2026-04-26 06:08 63.75809 -68.55943 68 ft 15 kts 316°
2026-04-26 06:09 63.75868 -68.56059 69 ft 8 kts 337°
2026-04-26 06:09 63.75903 -68.56038 71 ft 3 kts 56°
2026-04-26 06:09 63.75908 -68.55991 72 ft 3 kts 89°
2026-04-26 06:09 63.75906 -68.55930 73 ft 4 kts 99°
2026-04-26 06:10 63.75900 -68.55852 74 ft 5 kts 100°
2026-04-26 06:10 63.75894 -68.55770 75 ft 5 kts 100°
2026-04-26 06:10 63.75887 -68.55684 77 ft 5 kts 100°
2026-04-26 06:10 63.75880 -68.55589 78 ft 6 kts 100°
2026-04-26 06:11 63.75871 -68.55472 79 ft 8 kts 100°
2026-04-26 06:11 63.75861 -68.55334 78 ft 10 kts 100°
2026-04-26 06:11 63.75845 -68.55141 74 ft 15 kts 100°
2026-04-26 06:11 63.75822 -68.54907 64 ft 15 kts 115°
2026-04-26 06:12 63.75738 -68.54703 58 ft 19 kts 144°
2026-04-26 06:12 63.75620 -68.54511 56 ft 21 kts 140°
2026-04-26 06:12 63.75511 -68.54284 56 ft 21 kts 131°
2026-04-26 06:12 63.75429 -68.54034 54 ft 16 kts 133°
2026-04-26 06:13 63.75325 -68.53899 52 ft 18 kts 166°
2026-04-26 06:13 63.75200 -68.53830 53 ft 19 kts 167°
2026-04-26 06:13 63.75098 -68.53775 48 ft 5 kts 167°
2026-04-26 06:13 63.75050 -68.53731 45 ft 9 kts 147°
2026-04-26 06:14 63.75043 -68.53598 42 ft 10 kts 47°